User: anonymous
Location: Mount Tamalpais State Park
(37.9108°N, 122.6128°W)
Time: 21:32:24
(UTC-07:00)
Language:

Cosmos 1814 Rocket - Orbit

View from above orbital plane
View from above orbital plane
View from above satellite
View from above satellite

Ground track
Ground track

The orbit data is extracted from the following two-line orbital elements,

1 17304U 87006B   14110.32996207  .00000327  00000-0  11789-3 0  1040
2 17304 074.0616 051.0931 0029843 181.2518 297.1157 14.37301533427502
Epoch (UTC): 20 April 2014 07:55:08
Eccentricity: 0.0029843
inclination: 74.0616°
perigee height: 746 km
apogee height: 789 km
right ascension of ascending node: 51.0931°
argument of perigee: 181.2518°
revolutions per day: 14.37301533
mean anomaly at epoch: 297.1157°
orbit number at epoch: 42750

The dashed part of the orbit path shows where the satellite is in the earth's shadow,  

DLR